Weather History for Seretse Khama, Botswana

Change the Weather History Date:

Tuesday, May 7, 2013

  Actual Average Record
Temperature  
Mean Temperature 56 °F -  
Max Temperature 69 °F 73 °F 91 °F (1998)
Min Temperature 44 °F 43 °F 37 °F (2001)
Degree Days  
Heating Degree Days 8    
Growing Degree Days 6 (Base 50)    
Moisture  
Dew Point 38 °F    
Average Humidity 52    
Maximum Humidity 81    
Minimum Humidity 27    
Precipitation  
Precipitation 0.00 in - - ()
Sea Level Pressure  
Sea Level Pressure 30.36 in    
Wind  
Wind Speed 6 mph ()    
Max Wind Speed 10 mph    
Max Gust Speed -    
Averages and records for this station are not official NWS values.
T = Trace of Precipitation, MM = Missing Value Source: Averaged Metar Reports

Daily Weather History Graph

Daily Weather History Graph

Search for Another Location

Airport:

Trip Planner

Search our weather history database for the weather conditions in past years. The results will help you decide how hot, cold, wet, or windy it might be!

Date:

Astronomy

May. 07, 2013 Rise Set
Actual Time 6:40 AM CAT 5:44 PM CAT
Civil Twilight 6:17 AM CAT 6:08 PM CAT
Nautical Twilight 5:49 AM CAT 6:35 PM CAT
Astronomical Twilight 5:22 AM CAT 7:02 PM CAT
Moon 4:15 AM CAT (5/7) 4:03 PM CAT (5/7)
Length of Visible Light 11h 51m
Length of Day
11h 03m
Waning Crescent, 7% of the Moon is Illuminated
May 7
Waning Crescent
May 10
New
May 18
First Quarter
May 25
Full
May 31
Last Quarter

Hourly Weather History & Observations

Time (CAT) Temp. Windchill Dew Point Humidity Pressure Visibility Wind Dir Wind Speed Gust Speed Precip Events Conditions
12:00 AM 51.8 °F - 39.2 °F 62% 30.42 in - ESE 6.9 mph - N/A   Clear
2:00 AM 50.0 °F - 41.0 °F 71% 30.39 in - East 6.9 mph - N/A   Clear
3:00 AM 48.2 °F - 41.0 °F 76% 30.39 in - East 6.9 mph - N/A   Clear
4:00 AM 46.4 °F 43.5 °F 39.2 °F 76% 30.39 in - ESE 5.8 mph - N/A   Clear
5:00 AM 46.4 °F 41.9 °F 39.2 °F 76% 30.39 in - SSE 9.2 mph - N/A   Clear
6:00 AM 44.6 °F 40.7 °F 37.4 °F 76% 30.39 in - SSE 6.9 mph - N/A   Clear
7:00 AM 44.6 °F 42.2 °F 39.2 °F 81% 30.42 in - SSE 4.6 mph - N/A   Clear
8:00 AM 51.8 °F - 39.2 °F 62% 30.45 in - ESE 4.6 mph - N/A   Clear
9:00 AM 57.2 °F - 41.0 °F 55% 30.45 in - NE 8.1 mph - N/A   Clear
10:00 AM 59.0 °F - 41.0 °F 51% 30.45 in - NE 9.2 mph - N/A   Clear
11:00 AM 62.6 °F - 41.0 °F 45% 30.45 in - NE 10.4 mph - N/A   Clear
12:00 PM 66.2 °F - 41.0 °F 40% 30.39 in - Variable 6.9 mph - N/A   Clear
1:00 PM 68.0 °F - 39.2 °F 35% 30.36 in - NE 9.2 mph - N/A   Clear
2:00 PM 68.0 °F - 37.4 °F 33% 30.33 in - East 6.9 mph - N/A   Clear
3:00 PM 69.8 °F - 35.6 °F 28% 30.30 in - Variable 4.6 mph - N/A   Clear
4:00 PM 69.8 °F - 33.8 °F 27% 30.27 in - ENE 5.8 mph - N/A   Clear
5:00 PM 69.8 °F - 33.8 °F 27% 30.27 in - ENE 5.8 mph - N/A   Clear
6:00 PM 64.4 °F - 33.8 °F 32% 30.30 in - East 5.8 mph - N/A   Clear
7:00 PM 59.0 °F - 35.6 °F 42% 30.30 in - ENE 6.9 mph - N/A   Clear
8:00 PM 57.2 °F - 33.8 °F 41% 30.30 in - NE 5.8 mph - N/A   Clear
9:00 PM 55.4 °F - 35.6 °F 47% 30.30 in - NE 5.8 mph - N/A   Clear
10:00 PM 51.8 °F - 35.6 °F 54% 30.33 in - SE 4.6 mph - N/A   Clear
11:00 PM 51.8 °F - 35.6 °F 54% 30.33 in - SSE 6.9 mph - N/A   Clear